Location: ??????
(56.0120°N, 39.1740°E)
Time: 09:14:37
(UTC+00:00)

Cosmos 407 Rocket - Pass Details

Date: 14 April 2026
Orbit: 740 x 781 km, 74.0° (Epoch: 19 May)

Event Time Altitude Azimuth Distance (km) Brightness Sun altitude
Rises 19:49:04 0° 332° (NNW) 3,221 8.3 -21.5°
Reaches altitude 10° 19:51:29 10° 336° (NNW) 2,286 7.1 -21.6°
Maximum altitude 19:56:36 61° 56° (ENE) 852 3.7 -21.9°
Enters shadow 19:58:01 44° 113° (ESE) 1,029 3.8 -22.0°
